This demonstration page uses our WeatherBlox Daily Observations layout. Learn more.

Hourly Observations for March 4, 2019

Temp ( °F °C ) Dew Point ( °F °C ) Humidity (%) Winds ( mph kmh ) Pressure ( in mb ) Visibility ( mi km ) Precip ( " mm )
12:15 am 00:15 Clear -6 -21.1 -13 -25 71 71 WNW 10 17 30.72 1040 10 16.0934 0 0
12:35 am 00:35 Clear -8 -22.1 -15 -26.3 69 69 NW 10 17 30.73 1041 10 16.0934 0 0
12:55 am 00:55 Clear -6 -21.2 -13 -24.8 73 73 NW 8 13 30.72 1040 10 16.0934 0 0
1:15 am 01:15 Clear -4 -20.2 -12 -24.2 71 71 NW 10 17 30.71 1040 10 16.0934 0 0
1:35 am 01:35 Clear -4 -20 -12 -24.7 66 66 NW 9 15 30.7 1039 10 16.0934 0 0
1:55 am 01:55 Clear -5 -20.4 -13 -24.8 68 68 WNW 8 13 30.7 1040 10 16.0934 0 0
2:15 am 02:15 Clear -8 -22 -15 -26.2 69 69 NW 9 15 30.71 1040 10 16.0934 0 0
2:35 am 02:35 Clear -4 -20 -13 -25 65 65 NW 8 13 30.69 1039 10 16.0934 0 0
2:55 am 02:55 Clear -6 -21.2 -14 -25.8 67 67 W 6 9 30.7 1040 10 16.0934 0 0
3:15 am 03:15 Clear -7 -21.6 -15 -26 68 68 WNW 7 11 30.69 1039 10 16.0934 0 0
3:35 am 03:35 Clear -9 -22.9 -16 -26.9 70 70 WNW 8 13 30.71 1040 10 16.0934 0 0
3:55 am 03:55 Clear -10 -23.1 -16 -26.8 72 72 WNW 7 11 30.7 1040 10 16.0934 0 0
4:15 am 04:15 Clear -8 -22.2 -15 -26 71 71 WNW 8 13 30.69 1039 10 16.0934 0 0
4:35 am 04:35 Clear -10 -23.4 -16 -26.9 73 73 W 8 13 30.71 1040 10 16.0934 0 0
4:55 am 04:55 Clear -9 -22.5 -15 -25.9 74 74 W 9 15 30.7 1040 10 16.0934 0 0
5:15 am 05:15 Clear -9 -22.7 -15 -26.2 73 73 W 10 17 30.71 1040 10 16.0934 0 0
5:35 am 05:35 Clear -9 -22.5 -15 -26 73 73 W 12 19 30.71 1040 10 16.0934 0 0
5:55 am 05:55 Clear -7 -21.9 -15 -25.9 70 70 W 12 19 30.71 1040 10 16.0934 0 0
6:15 am 06:15 Clear -7 -21.4 -14 -25.7 68 68 WNW 8 13 30.71 1040 10 16.0934 0 0
6:35 am 06:35 Clear -7 -21.6 -15 -26.1 67 67 W 12 19 30.7 1040 10 16.0934 0 0
6:55 am 06:55 Clear -8 -22.4 -16 -26.6 69 69 WNW 9 15 30.71 1040 10 16.0934 0 0
7:15 am 07:15 Sunny -10 -23.1 -17 -27.3 69 69 W 10 17 30.71 1040 10 16.0934 0 0
7:35 am 07:35 Sunny -9 -22.6 -16 -26.8 69 69 WNW 12 19 30.71 1040 10 16.0934 0 0
7:55 am 07:55 Sunny -8 -22.1 -16 -26.6 67 67 WNW 10 17 30.7 1040 10 16.0934 0 0
8:15 am 08:15 Sunny -7 -21.5 -15 -26.1 67 67 WNW 9 15 30.7 1040 10 16.0934 0 0
8:35 am 08:35 Sunny -7 -21.5 -15 -26.3 65 65 WNW 8 13 30.7 1040 10 16.0934 0 0
8:55 am 08:55 Sunny -6 -21 -15 -26 64 64 WNW 9 15 30.7 1040 10 16.0934 0 0
9:15 am 09:15 Sunny -5 -20.6 -14 -25.3 66 66 WNW 9 15 30.69 1039 10 16.0934 0 0
9:35 am 09:35 Sunny -3 -19.2 -12 -24.2 65 65 WNW 8 13 30.69 1039 10 16.0934 0 0
9:55 am 09:55 Sunny -1 -18.2 -9 -23 66 66 W 9 15 30.68 1039 10 16.0934 0 0
10:15 am 10:15 Sunny 0 -17.6 -9 -22.9 64 64 W 10 17 30.66 1038 10 16.0934 0 0
10:35 am 10:35 Sunny 1 -17.2 -8 -22.4 64 64 W 9 15 30.64 1038 10 16.0934 0 0
10:55 am 10:55 Sunny 1 -17 -8 -22 65 65 W 9 15 30.64 1038 10 16.0934 0 0
11:15 am 11:15 Sunny 3 -16.2 -6 -21.2 66 66 W 10 17 30.62 1037 10 16.0934 0 0
11:35 am 11:35 Sunny 3 -15.9 -5 -20.8 66 66 W 12 19 30.63 1037 10 16.0934 0 0
11:55 am 11:55 Sunny 5 -15 -4 -19.9 66 66 W 10 17 30.61 1037 10 16.0934 0 0
12:15 pm 12:15 Sunny 6 -14.6 -4 -19.8 65 65 W 10 17 30.61 1036 10 16.0934 0 0
12:35 pm 12:35 Sunny 7 -14 -3 -19.6 63 63 W 14 22 30.59 1036 10 16.0934 0 0
12:55 pm 12:55 Sunny 8 -13.4 -3 -19.2 62 62 W 14 22 30.57 1035 10 16.0934 0 0
1:15 pm 13:15 Sunny 9 -12.7 -1 -18.4 63 63 W 13 20 30.55 1035 10 16.0934 0 0
1:35 pm 13:35 Sunny 10 -12.1 0 -17.8 63 63 W 15 24 30.53 1034 10 16.0934 0 0
1:55 pm 13:55 Sunny 11 -11.7 0 -17.7 61 61 W 15 24 30.51 1033 10 16.0934 0 0
2:15 pm 14:15 Sunny 12 -11.2 0 -17.7 59 59 W 15 24 30.51 1033 10 16.0934 0 0
2:35 pm 14:35 Sunny 12 -11.2 1 -17.5 60 60 W 15 24 30.5 1033 10 16.0934 0 0
2:55 pm 14:55 Sunny 12 -11 1 -17.5 59 59 W 14 22 30.49 1032 10 16.0934 0 0
3:15 pm 15:15 Sunny 13 -10.7 1 -17.2 59 59 W 14 22 30.48 1032 10 16.0934 0 0
3:35 pm 15:35 Sunny 13 -10.5 1 -17 59 59 W 13 20 30.48 1032 10 16.0934 0 0
3:55 pm 15:55 Sunny 13 -10.5 1 -17.1 59 59 W 14 22 30.48 1032 10 16.0934 0 0
4:15 pm 16:15 Sunny 14 -10.2 2 -16.7 59 59 W 10 17 30.48 1032 10 16.0934 0 0
4:35 pm 16:35 Sunny 14 -10.1 2 -16.6 59 59 W 12 19 30.47 1032 10 16.0934 0 0
4:55 pm 16:55 Sunny 14 -10.1 2 -16.8 58 58 W 12 19 30.47 1032 10 16.0934 0 0
5:15 pm 17:15 Sunny 14 -10.2 2 -16.9 58 58 WSW 13 20 30.45 1031 10 16.0934 0 0
5:35 pm 17:35 Sunny 13 -10.4 1 -17 59 59 W 10 17 30.44 1031 10 16.0934 0 0
5:55 pm 17:55 Sunny 13 -10.8 2 -16.7 62 62 W 9 15 30.44 1031 10 16.0934 0 0
6:15 pm 18:15 Sunny 11 -11.5 1 -17 64 64 W 10 17 30.45 1031 10 16.0934 0 0
6:35 pm 18:35 Clear 10 -12.5 1 -17.5 67 67 W 10 17 30.46 1032 10 16.0934 0 0
6:55 pm 18:55 Clear 9 -13 0 -17.8 68 68 W 10 17 30.47 1032 10 16.0934 0 0
7:15 pm 19:15 Clear 8 -13.6 -1 -18.1 69 69 W 12 19 30.48 1032 10 16.0934 0 0
7:35 pm 19:35 Clear 7 -14.1 -1 -18.5 70 70 W 8 13 30.5 1033 10 16.0934 0 0
7:55 pm 19:55 Clear 8 -13.3 -1 -18.2 67 67 W 8 13 30.48 1032 10 16.0934 0 0
8:15 pm 20:15 Clear 6 -14.3 -2 -18.9 68 68 W 9 15 30.49 1033 10 16.0934 0 0
8:35 pm 20:35 Clear 6 -14.6 -2 -19 69 69 W 10 17 30.49 1033 10 16.0934 0 0
8:55 pm 20:55 Clear 6 -14.2 -2 -18.7 69 69 W 12 19 30.49 1033 10 16.0934 0 0
9:15 pm 21:15 Clear 7 -14 -1 -18.6 68 68 W 10 17 30.48 1032 10 16.0934 0 0
9:35 pm 21:35 Clear 6 -14.4 -2 -18.9 69 69 W 10 17 30.49 1033 10 16.0934 0 0
9:55 pm 21:55 Clear 7 -14.1 -1 -18.6 69 69 W 12 19 30.5 1033 10 16.0934 0 0
10:15 pm 22:15 Clear 7 -13.9 -1 -18.4 69 69 W 13 20 30.51 1033 10 16.0934 0 0
10:35 pm 22:35 Clear 6 -14.2 -2 -18.7 69 69 W 13 20 30.51 1033 10 16.0934 0 0
10:55 pm 22:55 Clear 7 -14.1 -1 -18.5 70 70 W 14 22 30.5 1033 10 16.0934 0 0
11:15 pm 23:15 Clear 6 -14.4 -3 -19.2 67 67 W 10 17 30.5 1033 10 16.0934 0 0
11:35 pm 23:35 Clear 5 -15.2 -3 -19.5 70 70 W 10 17 30.5 1033 10 16.0934 0 0
11:55 pm 23:55 Clear 5 -14.8 -3 -19.2 69 69 W 10 17 30.5 1033 10 16.0934 0 0

Powered by AerisWeather